, AK

(GMT )
McGrath

Weather History for PAMC - January, 2013

Change the Weather History Date:

Thursday, January 17, 2013

  Actual Average Record
Temperature  
Mean Temperature -5 °F -7 °F  
Max Temperature 2 °F - 49 °F (2009)
Min Temperature -12 °F -16 °F -63 °F (1947)
Degree Days  
Heating Degree Days 70 72  
Month to date heating degree days 914 1223  
Since 1 July heating degree days 7679 7469  
Cooling Degree Days 0    
Month to date cooling degree days 0  
Year to date cooling degree days 0  
Moisture  
Dew Point -6 °F    
Average Humidity 0    
Maximum Humidity 0    
Minimum Humidity 0    
Precipitation  
Precipitation T in 0.03 in 0.57 in (2000)
Month to date precipitation 1.92 0.63  
Year to date precipitation 1.92 0.63  
Snow  
Snow 0.20 in 0.50 in 9.30 in (2000)
Month to date snowfall 14.8 9.1  
Since 1 July snowfall 48.5 60.3  
Snow Depth 34.00 in    
Sea Level Pressure  
Sea Level Pressure 30.09 in    
Wind  
Wind Speed 4 mph (NW)    
Max Wind Speed 10 mph    
Max Gust Speed 13 mph    
Visibility 8 miles    
Events Snow    
T = Trace of Precipitation, MM = Missing Value Source: NWS Daily Summary

Daily Weather History Graph

Daily Weather History Graph

Search for Another Location

Airport or City:

Trip Planner

Search our weather history database for the weather conditions in past years. The results will help you decide how hot, cold, wet, or windy it might be!

Date:

Astronomy

Jan. 17, 2013 Rise Set
Actual Time 10:30 AM AKST 4:35 PM AKST
Civil Twilight 9:30 AM AKST 5:35 PM AKST
Nautical Twilight 8:30 AM AKST 6:36 PM AKST
Astronomical Twilight 7:35 AM AKST 7:31 PM AKST
Moon 11:12 AM AKST (1/17) 12:59 AM AKST (1/17)
Length of Visible Light 8h 05m
Length of Day
6h 04m
Waxing Crescent, 39% of the Moon is Illuminated
Jan 17
Waxing Crescent
Jan 18
First Quarter
Jan 26
Full
Feb 3
Last Quarter
Feb 9
New

Hourly Weather History & Observations

Time (AKST) Temp. Windchill Dew Point Humidity Pressure Visibility Wind Dir Wind Speed Gust Speed Precip Events Conditions
12:53 AM 1.9 °F -11.8 °F -5.1 °F 72% 30.02 in 6.0 mi NNW 8.1 mph - 0.00 in Snow Light Snow
1:53 AM 1.0 °F -8.7 °F -5.1 °F 75% 30.01 in 5.0 mi NNW 4.6 mph - 0.00 in Snow Light Snow
2:53 AM 1.0 °F -6.7 °F -5.1 °F 75% 30.01 in 4.0 mi WNW 3.5 mph - 0.00 in Snow Light Snow
3:53 AM 1.0 °F -6.7 °F -4.0 °F 79% 30.00 in 5.0 mi WNW 3.5 mph - 0.00 in Snow Light Snow
4:53 AM 1.0 °F -10.3 °F -5.1 °F 75% 30.00 in 5.0 mi NW 5.8 mph - 0.00 in Snow Light Snow
5:53 AM -0.0 °F -9.9 °F -5.1 °F 79% 30.00 in 5.0 mi WNW 4.6 mph - 0.00 in Snow Light Snow
6:53 AM 1.0 °F -10.3 °F -5.1 °F 75% 30.01 in 9.0 mi NW 5.8 mph - 0.00 in Snow Light Snow
7:53 AM 1.0 °F -10.3 °F -5.1 °F 75% 30.01 in 9.0 mi NW 5.8 mph - 0.00 in Snow Light Snow
8:53 AM 1.0 °F -8.7 °F -5.1 °F 75% 30.02 in 9.0 mi NW 4.6 mph - 0.00 in Snow Light Snow
9:53 AM -0.0 °F - -6.0 °F 76% 30.03 in 9.0 mi Calm Calm - 0.00 in Snow Light Snow
10:53 AM -0.9 °F - -7.1 °F 75% 30.05 in 9.0 mi Calm Calm - 0.00 in Snow Light Snow
11:53 AM 1.0 °F -8.7 °F -6.0 °F 72% 30.06 in 9.0 mi NW 4.6 mph - 0.00 in Snow Light Snow
12:53 PM 1.0 °F - -6.0 °F 72% 30.08 in 9.0 mi Calm Calm - 0.00 in Snow Light Snow
1:53 PM 1.9 °F -11.8 °F -5.1 °F 72% 30.09 in 8.0 mi North 8.1 mph - 0.00 in Snow Light Snow
2:53 PM 1.0 °F -12.9 °F -6.0 °F 72% 30.10 in 10.0 mi North 8.1 mph - 0.00 in   Mostly Cloudy
3:53 PM 1.0 °F -8.7 °F -6.0 °F 72% 30.12 in 10.0 mi North 4.6 mph - N/A   Mostly Cloudy
4:53 PM -0.0 °F -7.9 °F -7.1 °F 72% 30.14 in 10.0 mi NNW 3.5 mph - N/A   Overcast
5:53 PM -0.0 °F -11.6 °F -6.0 °F 76% 30.15 in 10.0 mi NNW 5.8 mph - N/A   Overcast
6:53 PM -0.0 °F -7.9 °F -6.0 °F 76% 30.15 in 10.0 mi NNW 3.5 mph - 0.00 in   Overcast
7:53 PM -0.0 °F -9.9 °F -6.0 °F 76% 30.16 in 10.0 mi NW 4.6 mph - N/A   Overcast
8:53 PM -2.0 °F -10.1 °F -7.1 °F 79% 30.18 in 8.0 mi West 3.5 mph - N/A   Overcast
9:07 PM -2.2 °F -10.4 °F -7.6 °F 78% 30.15 in 10.0 mi West 3.5 mph - N/A   Overcast
9:27 PM -4.0 °F - -7.6 °F 85% 30.15 in 10.0 mi Calm Calm - N/A   Scattered Clouds
9:53 PM -5.1 °F -15.8 °F -9.0 °F 83% 30.20 in 10.0 mi NNW 4.6 mph - N/A   Partly Cloudy
10:53 PM -8.0 °F -16.9 °F -11.9 °F 83% 30.22 in 10.0 mi West 3.5 mph - N/A   Clear
11:53 PM -9.0 °F -20.4 °F -14.1 °F 79% 30.24 in 10.0 mi West 4.6 mph - N/A   Clear